Location: Norderney
(53.7000°N, 7.1500°E)
Time: 08:27:21
(UTC+02:00)

X-37B - Pass Details

Date: 29 June 2021
Orbit: 383 x 392 km, 45.0° (Epoch: 01 July)

Event Time Altitude Azimuth Distance (km) Brightness Sun altitude
Rises 23:05:33 0° 251° (WSW) 2,258 4.7 -6.6°
Reaches altitude 10° 23:08:08 10° 229° (SW) 1,403 3.3 -6.8°
Maximum altitude 23:10:10 16° 188° (S) 1,094 2.4 -7.0°
Drops below altitude 10° 23:12:14 10° 147° (SSE) 1,401 2.7 -7.2°
Enters shadow 23:12:17 10° 147° (SSE) 1,414 2.7 -7.2°
